When you browse on this site, cookies collect data to enhance your experience and personalize the content and advertising you see.
Visit our Privacy Policy to learn more. By continuing to use the site, you agree to this use of cookies and data.
  • In Österreich
  • Länderverzeichnis
  • Für 7 Tage
  • Wassertemperatur
  • Satellitenkarten
  • Wetterkarte
  • News
  • Widgets
  • user-avatar
    Anmelden

    Stündliche Wetter Olbani

    Heute, 21 Januar, Montag

    Zeit Temperatur Niederschläge Wind Luftdruck Luftfeuchtigkeit
    00:00 -23°C° 0 mm 6 m/S 752 mmHg 81%
    01:00 -23°C° 0 mm 6 m/S 753 mmHg 81%
    02:00 -24°C° 0 mm 6 m/S 753 mmHg 82%
    03:00 -24°C° 0 mm 6 m/S 754 mmHg 82%
    04:00 -26°C° 0 mm 6 m/S 754 mmHg 83%
    05:00 -26°C° 0 mm 6 m/S 755 mmHg 83%
    06:00 -27°C° 0 mm 6 m/S 755 mmHg 83%
    07:00 -27°C° 0 mm 6 m/S 756 mmHg 83%
    08:00 -27°C° 0 mm 6 m/S 757 mmHg 83%
    09:00 -27°C° 0 mm 6 m/S 757 mmHg 83%
    10:00 -26°C° 0 mm 7 m/S 758 mmHg 83%
    11:00 -25°C° 0 mm 7 m/S 758 mmHg 82%
    12:00 -24°C° 0 mm 7 m/S 758 mmHg 81%
    13:00 -23°C° 0 mm 7 m/S 759 mmHg 80%
    14:00 -21°C° 0 mm 7 m/S 760 mmHg 79%
    15:00 -21°C° 0 mm 7 m/S 760 mmHg 78%
    16:00 -21°C° 0 mm 7 m/S 761 mmHg 77%
    17:00 -23°C° 0 mm 7 m/S 763 mmHg 76%
    18:00 -22°C° 0 mm 6 m/S 764 mmHg 75%
    19:00 -23°C° 0 mm 6 m/S 765 mmHg 75%
    20:00 -23°C° 0 mm 6 m/S 766 mmHg 76%
    21:00 -24°C° 0 mm 5 m/S 767 mmHg 76%
    22:00 -24°C° 0 mm 5 m/S 768 mmHg 77%
    23:00 -23°C° 0 mm 4 m/S 768 mmHg 78%

    Morgen, 22 Januar, Dienstag

    Zeit Temperatur Niederschläge Wind Luftdruck Luftfeuchtigkeit
    00:00 -24°C° 0 mm 4 m/S 769 mmHg 80%
    01:00 -24°C° 0 mm 4 m/S 770 mmHg 82%
    02:00 -24°C° 0 mm 3 m/S 771 mmHg 83%
    03:00 -24°C° 0 mm 3 m/S 771 mmHg 84%
    04:00 -24°C° 0 mm 2 m/S 772 mmHg 85%
    05:00 -24°C° 0 mm 2 m/S 773 mmHg 85%
    06:00 -22°C° 0 mm 1 m/S 774 mmHg 86%
    07:00 -22°C° 0 mm 1 m/S 774 mmHg 86%
    08:00 -20°C° 0 mm 1 m/S 775 mmHg 83%
    09:00 -18°C° 0 mm 1 m/S 775 mmHg 80%
    10:00 -15°C° 0 mm 1 m/S 775 mmHg 76%
    11:00 -13°C° 0 mm 1 m/S 775 mmHg 75%
    12:00 -11°C° 0 mm 1 m/S 774 mmHg 73%
    13:00 -9°C° 0 mm 1 m/S 774 mmHg 71%
    14:00 -9°C° 0 mm 1 m/S 773 mmHg 75%
    15:00 -9°C° 0 mm 1 m/S 773 mmHg 79%
    16:00 -9°C° 0 mm 1 m/S 773 mmHg 83%
    17:00 -10°C° 0 mm 1 m/S 773 mmHg 83%
    18:00 -10°C° 0 mm 1 m/S 773 mmHg 82%
    19:00 -11°C° 0 mm 1 m/S 773 mmHg 82%
    20:00 -11°C° 0 mm 1 m/S 772 mmHg 82%
    21:00 -13°C° 0 mm 2 m/S 771 mmHg 81%
    22:00 -13°C° 0 mm 2 m/S 771 mmHg 81%
    23:00 -12°C° 0 mm 2 m/S 770 mmHg 80%

    übermorgen, 23 Januar, Mittwoch

    Zeit Temperatur Niederschläge Wind Luftdruck Luftfeuchtigkeit
    00:00 -12°C° 0 mm 3 m/S 769 mmHg 79%
    01:00 -10°C° 0 mm 3 m/S 769 mmHg 78%
    02:00 -9°C° 0 mm 3 m/S 768 mmHg 76%
    03:00 -9°C° 0 mm 4 m/S 767 mmHg 73%
    04:00 -8°C° 0 mm 4 m/S 766 mmHg 70%
    05:00 -8°C° 0 mm 4 m/S 766 mmHg 74%
    06:00 -7°C° 0 mm 3 m/S 765 mmHg 78%
    07:00 -7°C° 0 mm 3 m/S 764 mmHg 82%
    08:00 -6°C° 0.1 mm 3 m/S 764 mmHg 82%
    09:00 -5°C° 0.1 mm 4 m/S 763 mmHg 82%
    10:00 -4°C° 0.1 mm 4 m/S 763 mmHg 82%
    11:00 -4°C° 0.6 mm 5 m/S 762 mmHg 85%
    12:00 -2°C° 0.6 mm 5 m/S 761 mmHg 89%
    13:00 -1°C° 0.6 mm 5 m/S 760 mmHg 92%
    14:00 -1°C° 0.9 mm 4 m/S 759 mmHg 93%
    15:00 0°C° 0.9 mm 4 m/S 758 mmHg 95%
    16:00 +1°C° 0.9 mm 4 m/S 758 mmHg 96%
    17:00 +1°C° 1.4 mm 4 m/S 757 mmHg 97%
    18:00 +2°C° 1.4 mm 3 m/S 757 mmHg 98%
    19:00 +2°C° 1.4 mm 3 m/S 756 mmHg 98%
    20:00 +3°C° 1.7 mm 3 m/S 755 mmHg 99%
    21:00 +3°C° 1.7 mm 3 m/S 754 mmHg 99%
    22:00 +3°C° 1.7 mm 3 m/S 754 mmHg 99%
    23:00 +3°C° 1.4 mm 3 m/S 753 mmHg 99%

    24 Januar, Donnerstag

    Zeit Temperatur Niederschläge Wind Luftdruck Luftfeuchtigkeit
    00:00 +4°C° 1.4 mm 2 m/S 752 mmHg 99%
    01:00 +4°C° 1.4 mm 2 m/S 752 mmHg 99%
    02:00 +5°C° 1.2 mm 1 m/S 751 mmHg 99%
    03:00 +5°C° 1.2 mm 1 m/S 750 mmHg 99%
    04:00 +4°C° 1.2 mm 0 m/S 750 mmHg 99%
    05:00 +4°C° 1.7 mm 0 m/S 749 mmHg 99%
    06:00 +4°C° 1.7 mm 1 m/S 749 mmHg 99%
    07:00 +4°C° 1.7 mm 1 m/S 749 mmHg 99%
    08:00 +4°C° 1.2 mm 1 m/S 748 mmHg 99%
    09:00 +4°C° 1.2 mm 1 m/S 748 mmHg 99%
    10:00 +3°C° 1.2 mm 2 m/S 747 mmHg 99%
    11:00 +2°C° 0.6 mm 2 m/S 747 mmHg 98%
    12:00 +1°C° 0.6 mm 3 m/S 746 mmHg 97%
    13:00 0°C° 0.6 mm 4 m/S 745 mmHg 96%
    14:00 0°C° 0.4 mm 4 m/S 746 mmHg 92%
    15:00 0°C° 0.4 mm 5 m/S 746 mmHg 88%
    16:00 -2°C° 0.4 mm 6 m/S 746 mmHg 84%
    17:00 -3°C° 0 mm 6 m/S 747 mmHg 84%
    18:00 -4°C° 0 mm 5 m/S 748 mmHg 83%
    19:00 -5°C° 0 mm 5 m/S 749 mmHg 82%
    20:00 -6°C° 0 mm 5 m/S 749 mmHg 82%
    21:00 -6°C° 0 mm 5 m/S 750 mmHg 83%
    22:00 -7°C° 0 mm 4 m/S 751 mmHg 83%
    23:00 -7°C° 0 mm 4 m/S 751 mmHg 84%

    25 Januar, Freitag

    Zeit Temperatur Niederschläge Wind Luftdruck Luftfeuchtigkeit
    00:00 -7°C° 0 mm 3 m/S 752 mmHg 84%
    01:00 -8°C° 0 mm 3 m/S 752 mmHg 85%
    02:00 -7°C° 0 mm 2 m/S 753 mmHg 86%
    03:00 -7°C° 0 mm 1 m/S 753 mmHg 88%
    04:00 -8°C° 0 mm 0 m/S 753 mmHg 90%
    05:00 -8°C° 0 mm 1 m/S 753 mmHg 90%
    06:00 -8°C° 0 mm 1 m/S 753 mmHg 91%
    07:00 -8°C° 0 mm 1 m/S 754 mmHg 91%
    08:00 -7°C° 0 mm 1 m/S 753 mmHg 89%
    09:00 -4°C° 0 mm 1 m/S 753 mmHg 88%
    10:00 -5°C° 0 mm 2 m/S 753 mmHg 87%
    11:00 -4°C° 0 mm 2 m/S 752 mmHg 85%
    12:00 -4°C° 0 mm 3 m/S 751 mmHg 84%
    13:00 -3°C° 0 mm 4 m/S 750 mmHg 83%
    14:00 -3°C° 0.1 mm 4 m/S 749 mmHg 83%
    15:00 -3°C° 0.1 mm 4 m/S 748 mmHg 83%
    16:00 -3°C° 0.1 mm 4 m/S 747 mmHg 83%
    17:00 -3°C° 0.2 mm 4 m/S 748 mmHg 86%
    18:00 -4°C° 0.2 mm 4 m/S 748 mmHg 89%
    19:00 -5°C° 0.2 mm 4 m/S 748 mmHg 92%
    20:00 -8°C° 0.4 mm 5 m/S 748 mmHg 88%
    21:00 -11°C° 0.4 mm 6 m/S 749 mmHg 84%
    22:00 -15°C° 0.4 mm 7 m/S 749 mmHg 81%
    23:00 -16°C° 0 mm 6 m/S 750 mmHg 78%

    26 Januar, Samstag

    Zeit Temperatur Niederschläge Wind Luftdruck Luftfeuchtigkeit
    00:00 -17°C° 0 mm 5 m/S 750 mmHg 76%
    01:00 -18°C° 0 mm 5 m/S 751 mmHg 74%
    02:00 -18°C° 0 mm 5 m/S 751 mmHg 74%
    03:00 -18°C° 0 mm 4 m/S 752 mmHg 74%
    04:00 -18°C° 0 mm 4 m/S 752 mmHg 74%
    05:00 -18°C° 0 mm 4 m/S 752 mmHg 74%
    06:00 -18°C° 0 mm 4 m/S 752 mmHg 74%
    07:00 -18°C° 0 mm 4 m/S 753 mmHg 75%
    08:00 -18°C° 0 mm 5 m/S 753 mmHg 73%
    09:00 -18°C° 0 mm 6 m/S 753 mmHg 71%
    10:00 -18°C° 0 mm 7 m/S 754 mmHg 69%
    11:00 -17°C° 0 mm 8 m/S 754 mmHg 69%
    12:00 -17°C° 0 mm 8 m/S 754 mmHg 69%
    13:00 -16°C° 0 mm 8 m/S 755 mmHg 68%
    14:00 -15°C° 0 mm 7 m/S 756 mmHg 70%
    15:00 -15°C° 0 mm 6 m/S 756 mmHg 72%
    16:00 -15°C° 0 mm 5 m/S 757 mmHg 74%
    17:00 -15°C° 0 mm 4 m/S 758 mmHg 78%
    18:00 -15°C° 0 mm 3 m/S 759 mmHg 82%
    19:00 -13°C° 0 mm 1 m/S 761 mmHg 86%
    20:00 -14°C° 0 mm 1 m/S 761 mmHg 88%
    21:00 -15°C° 0 mm 1 m/S 762 mmHg 89%
    22:00 -15°C° 0 mm 1 m/S 763 mmHg 90%
    23:00 -16°C° 0 mm 1 m/S 763 mmHg 90%
    Mehr zeigen